Terug naar catalogus

THOR DELTA 1 DEB

LostPO
NORAD 33518·DEBRIS·🇺🇸 United States

Gelanceerd Apr 1, 1971 vanaf Vandenberg Space Force Base

Loading…

Volgende Passages (komende 24 uur)

TLE

VerouderdSource: Space-Track

Epoch: Feb 3, 2019, 02:10 UTC

1 33518U 71024J   19034.09068497  .00000230  00000-0  87559-3 0  9996
2 33518  88.1497 329.1548 0034908 306.7566 114.2538 12.86647437683579

Volg THOR DELTA 1 DEB in realtime met AllMySat

Download on the App Store